Weather History for Columbus AFB, MS

Change the Weather History Date:

Monday, May 20, 2013

  Actual Average Record
Temperature  
Mean Temperature 78 °F -  
Max Temperature 88 °F 80 °F 93 °F (1998)
Min Temperature 69 °F 60 °F 42 °F (2002)
Cooling Degree Days 14    
Growing Degree Days 28 (Base 50)    
Moisture  
Dew Point 70 °F    
Average Humidity 83    
Maximum Humidity 100    
Minimum Humidity 50    
Precipitation  
Precipitation 0.00 in - - ()
Sea Level Pressure  
Sea Level Pressure 30.00 in    
Wind  
Wind Speed 3 mph (South)    
Max Wind Speed 9 mph    
Max Gust Speed -    
Visibility 9 miles    
Events      
Averages and records for this station are not official NWS values.
T = Trace of Precipitation, MM = Missing Value Source: NWS Daily Summary

Daily Weather History Graph

Daily Weather History Graph

Search for Another Location

Airport:

Trip Planner

Search our weather history database for the weather conditions in past years. The results will help you decide how hot, cold, wet, or windy it might be!

Date:

Astronomy

May. 20, 2013 Rise Set
Actual Time 5:49 AM CDT 7:51 PM CDT
Civil Twilight 5:21 AM CDT 8:19 PM CDT
Nautical Twilight 4:47 AM CDT 8:53 PM CDT
Astronomical Twilight 4:11 AM CDT 9:29 PM CDT
Moon 3:11 PM CDT (5/20) 2:30 AM CDT (5/20)
Length of Visible Light 14h 57m
Length of Day
14h 01m
Waxing Gibbous, 75% of the Moon is Illuminated
May 20
Waxing Gibbous
May 24
Full
May 31
Last Quarter
Jun 8
New
Jun 16
First Quarter

Hourly Weather History & Observations

Time (CDT) Temp. Heat Index Dew Point Humidity Pressure Visibility Wind Dir Wind Speed Gust Speed Precip Events Conditions
12:58 AM 74.1 °F - 69.1 °F 84% 29.99 in 10.0 mi SSW 5.8 mph - N/A   Clear
1:58 AM 72.5 °F - 69.8 °F 91% 29.96 in 10.0 mi SSW 5.8 mph - N/A   Clear
2:58 AM 71.1 °F - 70.3 °F 98% 29.96 in 10.0 mi Calm Calm - N/A   Clear
3:58 AM 69.8 °F - 69.8 °F 100% 29.96 in 6.0 mi Calm Calm - N/A   Clear
4:08 AM 69.8 °F - 69.8 °F 100% 29.96 in 4.0 mi Calm Calm - N/A   Clear
4:29 AM 69.8 °F - 69.8 °F 100% 29.97 in 4.0 mi Calm Calm - N/A   Scattered Clouds
4:34 AM 69.8 °F - 69.8 °F 100% 29.97 in 5.0 mi Calm Calm - N/A   Mostly Cloudy
4:39 AM 69.8 °F - 69.8 °F 100% 29.98 in 5.0 mi Calm Calm - N/A   Mostly Cloudy
4:58 AM 69.8 °F - 69.8 °F 100% 29.99 in 6.0 mi Calm Calm - N/A   Overcast
5:33 AM 71.6 °F - 71.6 °F 100% 29.99 in 7.0 mi Calm Calm - N/A   Overcast
5:58 AM 70.9 °F - 70.9 °F 100% 30.01 in 6.0 mi Calm Calm - N/A   Overcast
6:18 AM 71.6 °F - 71.6 °F 100% 30.01 in 7.0 mi Calm Calm - N/A   Overcast
6:43 AM 71.6 °F - 71.6 °F 100% 30.02 in 6.0 mi Calm Calm - N/A   Overcast
6:58 AM 71.6 °F - 71.6 °F 100% 30.03 in 6.0 mi Calm Calm - N/A   Mostly Cloudy
7:08 AM 71.6 °F - 71.6 °F 100% 30.02 in 6.0 mi Calm Calm - N/A   Scattered Clouds
7:30 AM 73.4 °F - 71.6 °F 94% 30.03 in 9.0 mi Calm Calm - N/A   Mostly Cloudy
7:58 AM 74.1 °F - 70.9 °F 90% 30.05 in 10.0 mi Calm Calm - N/A   Overcast
8:13 AM 75.2 °F - 69.8 °F 83% 30.04 in 10.0 mi Calm Calm - N/A   Overcast
8:28 AM 75.2 °F - 69.8 °F 83% 30.05 in 10.0 mi Calm Calm - N/A   Mostly Cloudy
8:33 AM 75.2 °F - 69.8 °F 83% 30.05 in 10.0 mi WNW 1.2 mph - N/A   Mostly Cloudy
8:38 AM 75.2 °F - 69.8 °F 83% 30.05 in 10.0 mi Calm Calm - N/A   Mostly Cloudy
8:58 AM 75.6 °F - 70.2 °F 83% 30.06 in 10.0 mi NNW 1.2 mph - N/A   Mostly Cloudy
9:23 AM 77.0 °F - 69.8 °F 78% 30.05 in 10.0 mi Variable 2.3 mph - N/A   Scattered Clouds
9:58 AM 80.1 °F 82.9 °F 69.3 °F 69% 30.04 in 10.0 mi Variable 6.9 mph - N/A   Scattered Clouds
10:58 AM 81.3 °F 84.6 °F 69.3 °F 67% 30.04 in 10.0 mi Calm Calm - N/A   Scattered Clouds
11:58 AM 84.2 °F 88.1 °F 69.6 °F 61% 30.04 in 10.0 mi SSW 8.1 mph - N/A   Scattered Clouds
12:58 PM 84.9 °F 88.8 °F 69.1 °F 59% 30.03 in 10.0 mi SSW 3.5 mph - N/A   Partly Cloudy
1:58 PM 86.5 °F 90.3 °F 68.7 °F 55% 30.01 in 10.0 mi SSW 6.9 mph - N/A   Partly Cloudy
2:58 PM 88.0 °F 92.1 °F 69.1 °F 53% 29.99 in 10.0 mi WSW 6.9 mph - N/A   Clear
3:58 PM 87.3 °F 90.9 °F 68.4 °F 53% 29.98 in 10.0 mi SSW 6.9 mph - N/A   Clear
4:58 PM 88.5 °F 91.9 °F 67.8 °F 50% 29.96 in 10.0 mi South 9.2 mph - N/A   Clear
5:58 PM 86.7 °F 91.0 °F 69.3 °F 56% 29.94 in 10.0 mi South 9.2 mph - N/A   Clear
6:58 PM 84.6 °F 88.8 °F 70.0 °F 61% 29.93 in 10.0 mi SSE 9.2 mph - N/A   Clear
7:58 PM 79.5 °F - 70.3 °F 73% 29.93 in 10.0 mi SSE 8.1 mph - N/A   Clear
8:58 PM 76.8 °F - 70.0 °F 79% 29.94 in 10.0 mi SSE 8.1 mph - N/A   Clear
9:58 PM 74.1 °F - 70.2 °F 87% 29.94 in 10.0 mi SSE 8.1 mph - N/A   Clear
10:58 PM 73.8 °F - 69.4 °F 86% 29.96 in 10.0 mi SSE 5.8 mph - N/A   Clear
11:58 PM 74.3 °F - 69.3 °F 84% 29.96 in 10.0 mi South 5.8 mph - N/A   Clear